Location: Twillingate Astronomical Observatory
(49.6173°N, 54.7580°W)
Time: 14:25:41
(UTC-02:-30)

Amateur Radio Satellites - All Passes

Search period start: 27 August 2014 13:55
Search period end: 28 August 2014 13:55
Location: Twillingate Astronomical Observatory, 49.6173°N, 54.7580°W

Satellite Date Start Highest point End Downlink Frequencies (MHz)
Time Altitude Azimuth
ITAMSAT 1 27 Aug 14:01:46 14:06:52 63° 70° (ENE) 14:12:00 435.822 SSB
SO-50 27 Aug 14:05:46 14:10:18 44° 239° (WSW) 14:14:53 436.795 FM
Oscar 16 27 Aug 14:12:27 14:17:29 53° 260° (W) 14:22:34 437.025 USB, Beacon 2401.1428
Uribyol 2 27 Aug 14:12:41 14:17:50 81° 73° (ENE) 14:23:02 436.500 FM
AO-27 27 Aug 14:29:44 14:34:55 78° 256° (WSW) 14:40:08 436.795 MHz FM
AO-Echo 27 Aug 14:35:39 14:40:41 65° 258° (WSW) 14:45:36 ?
Gurwin Techsat 1B 27 Aug 14:36:19 14:41:31 59° 70° (ENE) 14:46:46 435.225 FM
ISS 27 Aug 14:36:34 14:39:54 74° 347° (NNW) 14:43:16 145.800 FM
AO-7 27 Aug 14:39:08 14:46:08 32° 49° (NE) 14:53:08 29.400 - 29.500 MHz
MaSat-1 27 Aug 14:42:05 14:46:56 58° 115° (ESE) 14:52:03 437.345 MHz
UOSAT-12 27 Aug 14:46:09 14:50:52 59° 45° (NE) 14:55:30 437.025 FM, 437.400 FM
RS-15 27 Aug 14:54:16 15:04:29 41° 19° (NNE) 15:14:55 29.354 - 29.394 USB, Beacon 29.352 USB
Oscar 19 27 Aug 15:19:57 15:23:09 16° 272° (W) 15:26:23 437.125 CW, 437.150 USB
Uosat F 27 Aug 15:23:34 15:27:47 28° 61° (ENE) 15:32:01 435.120 FM
TMSAT-1 27 Aug 15:30:20 15:35:36 70° 257° (WSW) 15:40:54 436.925 FM
JAS-1B 27 Aug 15:40:29 15:49:42 44° 265° (W) 15:58:09 435.800 - 435.900 CW/SSB
ITAMSAT 1 27 Aug 15:42:57 15:46:49 21° 269° (W) 15:50:42 435.822 SSB
Uribyol 2 27 Aug 15:54:49 15:57:58 16° 272° (W) 16:01:08 436.500 FM
AO-27 27 Aug 16:13:23 16:15:19 12° 275° (W) 16:17:15 436.795 MHz FM
ISS 27 Aug 16:13:32 16:16:51 62° 7° (N) 16:20:11 145.800 FM
Gurwin Techsat 1B 27 Aug 16:17:44 16:21:54 23° 269° (W) 16:26:05 435.225 FM
MaSat-1 27 Aug 16:19:53 16:24:22 30° 316° (NW) 16:28:57 437.345 MHz
UOSAT-12 27 Aug 16:26:51 16:30:42 25° 245° (WSW) 16:34:31 437.025 FM, 437.400 FM
OPAL 27 Aug 16:28:14 16:31:11 15° 90° (E) 16:34:07 ?
AO-7 27 Aug 16:29:51 16:38:13 81° 251° (WSW) 16:46:36 29.400 - 29.500 MHz
JAS-2 27 Aug 16:42:48 16:47:13 22° 58° (ENE) 16:51:20 435.800 - 435.900 CW/SSB, 435.910 FM
PCSat 27 Aug 16:51:03 16:52:11 11° 101° (E) 16:53:18 145.825 MHz
Uosat F 27 Aug 17:01:32 17:06:22 48° 260° (W) 17:11:14 435.120 FM
RS-15 27 Aug 17:07:30 17:18:35 82° 48° (NE) 17:30:03 29.354 - 29.394 USB, Beacon 29.352 USB
TMSAT-1 27 Aug 17:15:21 17:16:31 11° 277° (W) 17:17:42 436.925 FM
Hamsat 27 Aug 17:19:50 17:23:37 30° 66° (ENE) 17:27:26 145.90 MHz
ISS 27 Aug 17:50:20 17:53:37 55° 206° (SSW) 17:56:54 145.800 FM
Sapphire 27 Aug 17:59:53 18:04:47 36° 114° (ESE) 18:09:43 437.095 MHz 1200 baud AX-25 AFSK
MaSat-1 27 Aug 18:01:42 18:03:06 11° 338° (NNW) 18:04:30 437.345 MHz
OPAL 27 Aug 18:05:30 18:10:46 89° 288° (WNW) 18:16:00 ?
JAS-2 27 Aug 18:25:40 18:31:55 75° 256° (WSW) 18:37:29 435.800 - 435.900 CW/SSB, 435.910 FM
HO-68 27 Aug 18:25:54 18:28:35 12° 37° (NE) 18:31:16 435.675 MHz FM
AO-7 27 Aug 18:26:32 18:32:18 20° 273° (W) 18:38:06 29.400 - 29.500 MHz
PCSat 27 Aug 18:29:11 18:34:31 64° 120° (ESE) 18:39:54 145.825 MHz
Hamsat 27 Aug 18:55:38 18:59:32 33° 265° (W) 19:03:30 145.90 MHz
SO-67 27 Aug 19:06:32 19:09:56 56° 74° (ENE) 19:13:22 435.3500 MHz FM
RS-15 27 Aug 19:20:28 19:29:58 35° 253° (WSW) 19:39:48 29.354 - 29.394 USB, Beacon 29.352 USB
ISS 27 Aug 19:28:21 19:29:48 12° 224° (SW) 19:31:14 145.800 FM
Sapphire 27 Aug 19:42:54 19:48:07 47° 314° (NW) 19:53:23 437.095 MHz 1200 baud AX-25 AFSK
STRAND 1 27 Aug 19:43:29 19:48:25 46° 99° (E) 19:53:19 ?
OPAL 27 Aug 19:45:34 19:48:59 18° 308° (NW) 19:52:23 ?
Oscar 10/S400 27 Aug 19:59:54 20:18:33 39° 154° (SSE) 21:23:58 145.825 - 145.975 CW/USB, Beacon 145.810 USB
HO-68 27 Aug 20:07:55 20:14:32 43° 60° (ENE) 20:21:10 435.675 MHz FM
PCSat 27 Aug 20:13:32 20:18:20 31° 322° (NW) 20:23:11 145.825 MHz
JAS-2 27 Aug 20:15:15 20:17:50 13° 274° (W) 20:20:19 435.800 - 435.900 CW/SSB, 435.910 FM
UKube-1 27 Aug 20:26:52 20:30:09 21° 61° (ENE) 20:33:27 145.840 MHz, 145.915 MHz
Oscar 11 27 Aug 20:37:13 20:40:02 17° 59° (ENE) 20:42:51 145.825 FM, Beacon 2401.500 USB
SO-67 27 Aug 20:41:56 20:43:21 12° 271° (W) 20:44:46 435.3500 MHz FM
FUNcube-1 27 Aug 20:55:22 20:56:21 11° 54° (NE) 20:57:20 145.950 - 145.970 MHz USB
AO-40 27 Aug 21:10:39 02:31:16 30° 184° (S) 07:29:50 Beacon 2401.320
MaSat-1 27 Aug 21:19:39 21:22:06 13° 27° (NNE) 21:24:27 437.345 MHz
STRAND 1 27 Aug 21:23:04 21:27:26 29° 298° (WNW) 21:31:47 ?
Sapphire 27 Aug 21:29:26 21:32:55 17° 338° (NNW) 21:36:24 437.095 MHz 1200 baud AX-25 AFSK
HO-68 27 Aug 21:55:20 22:02:11 48° 260° (W) 22:09:06 435.675 MHz FM
PCSat 27 Aug 22:00:46 22:03:32 14° 347° (NNW) 22:06:19 145.825 MHz
UKube-1 27 Aug 22:01:50 22:06:04 51° 259° (W) 22:10:19 145.840 MHz, 145.915 MHz
Oscar 11 27 Aug 22:11:26 22:15:45 67° 258° (WSW) 22:20:07 145.825 FM, Beacon 2401.500 USB
FUNcube-1 27 Aug 22:27:48 22:31:58 75° 74° (ENE) 22:36:14 145.950 - 145.970 MHz USB
MaSat-1 27 Aug 22:55:46 23:00:31 45° 50° (NE) 23:04:43 437.345 MHz
Sapphire 27 Aug 23:16:26 23:18:41 12° 5° (N) 23:20:57 437.095 MHz 1200 baud AX-25 AFSK
Saudisat 1A 27 Aug 23:18:38 23:21:41 19° 113° (ESE) 23:24:45 436.775 MHz
KITSAT 1 27 Aug 23:43:06 23:49:38 28° 106° (ESE) 23:56:10 435.175 FM
PCSat 27 Aug 23:46:37 23:49:23 14° 13° (NNE) 23:52:09 145.825 MHz
FUNcube-1 28 Aug 00:07:03 00:08:57 13° 273° (W) 00:10:53 145.950 - 145.970 MHz USB
MaSat-1 28 Aug 00:33:18 00:37:21 28° 253° (WSW) 00:40:58 437.345 MHz
Saudisat 1A 28 Aug 00:56:24 01:00:48 71° 312° (NW) 01:05:15 436.775 MHz
Sapphire 28 Aug 01:00:00 01:04:14 22° 30° (NNE) 01:08:27 437.095 MHz 1200 baud AX-25 AFSK
PCSat 28 Aug 01:29:45 01:34:35 31° 38° (NE) 01:39:24 145.825 MHz
KITSAT 1 28 Aug 01:36:06 01:44:14 83° 308° (NW) 01:52:23 435.175 FM
Oscar 19 28 Aug 01:45:57 01:49:51 21° 90° (E) 01:53:43 437.125 CW, 437.150 USB
ITAMSAT 1 28 Aug 02:11:26 02:14:34 16° 88° (E) 02:17:42 435.822 SSB
Oscar 16 28 Aug 02:19:38 02:24:33 40° 97° (E) 02:29:25 437.025 USB, Beacon 2401.1428
Uribyol 2 28 Aug 02:21:44 02:25:36 21° 91° (E) 02:29:27 436.500 FM
Saudisat 1A 28 Aug 02:37:55 02:41:09 19° 334° (NNW) 02:44:24 436.775 MHz
AO-27 28 Aug 02:38:44 02:43:08 27° 94° (E) 02:47:31 436.795 MHz FM
AO-Echo 28 Aug 02:38:50 02:42:53 28° 94° (E) 02:46:53 ?
Sapphire 28 Aug 02:43:05 02:48:33 77° 53° (NE) 02:53:59 437.095 MHz 1200 baud AX-25 AFSK
Gurwin Techsat 1B 28 Aug 02:49:09 02:52:33 17° 88° (E) 02:55:57 435.225 FM
PCSat 28 Aug 03:13:01 03:18:25 64° 240° (WSW) 03:23:46 145.825 MHz
JAS-1B 28 Aug 03:22:21 03:29:30 55° 98° (E) 03:35:32 435.800 - 435.900 CW/SSB
Oscar 19 28 Aug 03:24:29 03:29:39 64° 289° (WNW) 03:34:47 437.125 CW, 437.150 USB
KITSAT 1 28 Aug 03:33:36 03:40:49 34° 334° (NNW) 03:48:02 435.175 FM
TMSAT-1 28 Aug 03:41:53 03:46:43 34° 95° (E) 03:51:30 436.925 FM
OPAL 28 Aug 03:46:32 03:51:17 43° 63° (ENE) 03:56:08 ?
ITAMSAT 1 28 Aug 03:49:31 03:54:44 82° 287° (WNW) 03:59:55 435.822 SSB
Oscar 16 28 Aug 03:59:10 04:03:50 34° 296° (WNW) 04:08:29 437.025 USB, Beacon 2401.1428
Uribyol 2 28 Aug 04:00:23 04:05:32 64° 290° (WNW) 04:10:40 436.500 FM
AO-Echo 28 Aug 04:17:24 04:21:49 40° 293° (WNW) 04:26:11 ?
AO-27 28 Aug 04:17:54 04:22:53 49° 293° (WNW) 04:27:51 436.795 MHz FM
Saudisat 1A 28 Aug 04:20:48 04:22:25 12° 358° (N) 04:24:02 436.775 MHz
SO-50 28 Aug 04:25:37 04:29:01 22° 114° (ESE) 04:32:29 436.795 FM
AO-7 28 Aug 04:27:07 04:33:52 27° 91° (E) 04:40:33 29.400 - 29.500 MHz
Sapphire 28 Aug 04:27:29 04:31:24 20° 253° (WSW) 04:35:17 437.095 MHz 1200 baud AX-25 AFSK
Gurwin Techsat 1B 28 Aug 04:27:51 04:33:11 80° 287° (WNW) 04:38:29 435.225 FM
PCSat 28 Aug 04:59:32 05:00:46 11° 259° (W) 05:02:00 145.825 MHz
Uosat F 28 Aug 05:04:42 05:09:21 37° 97° (E) 05:13:59 435.120 FM
Oscar 19 28 Aug 05:05:53 05:08:02 13° 309° (NW) 05:10:12 437.125 CW, 437.150 USB
JAS-1B 28 Aug 05:13:18 05:19:49 35° 304° (NW) 05:25:27 435.800 - 435.900 CW/SSB
TMSAT-1 28 Aug 05:21:47 05:26:42 40° 295° (WNW) 05:31:37 436.925 FM
OPAL 28 Aug 05:25:49 05:30:18 31° 263° (W) 05:34:52 ?
STRAND 1 28 Aug 05:26:52 05:30:18 19° 56° (NE) 05:33:45 ?
ITAMSAT 1 28 Aug 05:30:29 05:33:29 16° 307° (NW) 05:36:28 435.822 SSB
KITSAT 1 28 Aug 05:32:30 05:38:55 25° 3° (N) 05:45:19 435.175 FM
Uribyol 2 28 Aug 05:41:55 05:44:04 13° 309° (NW) 05:46:13 436.500 FM
Saudisat 1A 28 Aug 06:00:45 06:03:45 18° 23° (NNE) 06:06:45 436.775 MHz
SO-50 28 Aug 06:04:41 06:09:10 64° 314° (NW) 06:13:47 436.795 FM
Gurwin Techsat 1B 28 Aug 06:09:18 06:12:22 16° 307° (NW) 06:15:25 435.225 FM
AO-7 28 Aug 06:19:14 06:27:34 82° 293° (WNW) 06:35:50 29.400 - 29.500 MHz
Hamsat 28 Aug 06:36:42 06:40:41 33° 95° (E) 06:44:37 145.90 MHz
UOSAT-12 28 Aug 06:41:22 06:45:36 36° 119° (ESE) 06:49:54 437.025 FM, 437.400 FM
Uosat F 28 Aug 06:43:37 06:48:07 34° 296° (WNW) 06:52:36 435.120 FM
STRAND 1 28 Aug 07:03:49 07:08:55 80° 256° (WSW) 07:14:03 ?
JAS-2 28 Aug 07:14:36 07:19:45 63° 102° (ESE) 07:25:07 435.800 - 435.900 CW/SSB, 435.910 FM
KITSAT 1 28 Aug 07:29:20 07:36:49 39° 32° (NNE) 07:44:15 435.175 FM
RS-15 28 Aug 07:38:21 07:47:18 30° 105° (ESE) 07:56:09 29.354 - 29.394 USB, Beacon 29.352 USB
Saudisat 1A 28 Aug 07:39:52 07:44:15 57° 45° (NE) 07:48:36 436.775 MHz
SO-50 28 Aug 07:47:18 07:50:38 19° 337° (NNW) 07:54:01 436.795 FM
SO-67 28 Aug 07:59:06 08:02:21 36° 97° (E) 08:05:34 435.3500 MHz FM
Hamsat 28 Aug 08:12:45 08:16:36 30° 294° (WNW) 08:20:24 145.90 MHz
AO-7 28 Aug 08:12:53 08:19:17 26° 315° (NW) 08:25:40 29.400 - 29.500 MHz
UOSAT-12 28 Aug 08:21:15 08:25:42 43° 319° (NW) 08:30:15 437.025 FM, 437.400 FM
STRAND 1 28 Aug 08:46:57 08:48:57 12° 274° (W) 08:50:58 ?
JAS-2 28 Aug 09:00:37 09:04:32 22° 301° (WNW) 09:08:31 435.800 - 435.900 CW/SSB, 435.910 FM
HO-68 28 Aug 09:18:10 09:24:09 28° 92° (E) 09:30:06 435.675 MHz FM
Saudisat 1A 28 Aug 09:20:01 09:23:31 23° 245° (WSW) 09:27:00 436.775 MHz
KITSAT 1 28 Aug 09:24:55 09:33:02 81° 236° (SW) 09:41:05 435.175 FM
SO-50 28 Aug 09:30:48 09:32:59 13° 1° (N) 09:35:11 436.795 FM
SO-67 28 Aug 09:32:42 09:35:11 19° 295° (WNW) 09:37:40 435.3500 MHz FM
UKube-1 28 Aug 09:46:20 09:49:32 20° 92° (E) 09:52:42 145.840 MHz, 145.915 MHz
RS-15 28 Aug 09:47:17 09:58:20 88° 309° (NW) 10:09:21 29.354 - 29.394 USB, Beacon 29.352 USB
Oscar 11 28 Aug 09:55:41 09:58:34 17° 90° (E) 10:01:27 145.825 FM, Beacon 2401.500 USB
UOSAT-12 28 Aug 10:04:01 10:07:03 17° 342° (NNW) 10:10:05 437.025 FM, 437.400 FM
FUNcube-1 28 Aug 10:14:23 10:16:00 12° 86° (E) 10:17:38 145.950 - 145.970 MHz USB
HO-68 28 Aug 11:05:20 11:12:28 71° 292° (WNW) 11:19:34 435.675 MHz FM
SO-50 28 Aug 11:11:41 11:15:17 21° 26° (NNE) 11:18:55 436.795 FM
KITSAT 1 28 Aug 11:21:40 11:27:15 21° 258° (WSW) 11:32:49 435.175 FM
UKube-1 28 Aug 11:21:49 11:26:02 51° 290° (WNW) 11:30:14 145.840 MHz, 145.915 MHz
Oscar 11 28 Aug 11:30:50 11:35:10 60° 288° (WNW) 11:39:28 145.825 FM, Beacon 2401.500 USB
UOSAT-12 28 Aug 11:46:39 11:49:04 14° 7° (N) 11:51:30 437.025 FM, 437.400 FM
FUNcube-1 28 Aug 11:48:32 11:53:03 89° 104° (ESE) 11:57:37 145.950 - 145.970 MHz USB
RS-15 28 Aug 12:01:54 12:12:10 43° 338° (NNW) 12:22:32 29.354 - 29.394 USB, Beacon 29.352 USB
Oscar 16 28 Aug 12:04:17 12:07:26 17° 54° (NE) 12:10:35 437.025 USB, Beacon 2401.1428
ISS 28 Aug 12:12:22 12:15:04 23° 143° (SE) 12:17:46 145.800 FM
AO-Echo 28 Aug 12:21:37 12:22:46 11° 51° (NE) 12:23:55 ?
JAS-1B 28 Aug 12:21:39 12:28:38 24° 49° (NE) 12:35:02 435.800 - 435.900 CW/SSB
AO-27 28 Aug 12:25:31 12:27:35 12° 50° (NE) 12:29:39 436.795 MHz FM
SO-50 28 Aug 12:51:53 12:56:39 71° 48° (NE) 13:01:29 436.795 FM
HO-68 28 Aug 12:54:16 12:59:02 20° 314° (NW) 13:03:48 435.675 MHz FM
Oscar 19 28 Aug 13:06:49 13:11:43 45° 67° (ENE) 13:16:39 437.125 CW, 437.150 USB
FUNcube-1 28 Aug 13:26:28 13:28:50 14° 303° (WNW) 13:31:13 145.950 - 145.970 MHz USB
UOSAT-12 28 Aug 13:26:47 13:30:48 26° 31° (NNE) 13:34:48 437.025 FM, 437.400 FM
TMSAT-1 28 Aug 13:30:07 13:33:06 15° 53° (NE) 13:36:05 436.925 FM
ITAMSAT 1 28 Aug 13:33:12 13:37:56 38° 65° (ENE) 13:42:41 435.822 SSB
Oscar 16 28 Aug 13:40:54 13:46:04 87° 74° (ENE) 13:51:17 437.025 USB, Beacon 2401.1428
AO-7 28 Aug 13:42:21 13:47:26 18° 37° (NE) 13:52:31 29.400 - 29.500 MHz
Uribyol 2 28 Aug 13:43:38 13:48:33 47° 67° (ENE) 13:53:30 436.500 FM
ISS 28 Aug 13:48:10 13:51:30 88° 161° (SSE) 13:54:52 145.800 FM
